Long Beach Weather Center

Moon Phase Calendar



Online Cameras

 


      

Current Conditions in Ocean Park
7/12/2024 1:45:03 PM

60°F
Feels Like 60
Clouds
Humidity
86%
Pressure
30.09"
Wind
1 mph (NNW)
Dew Point
56°F
UV Index
7/10 (High)
Visibility
6 mi

Hourly Forecast

Date & Time Fri, Jul 12
1:00 PM
Fri, Jul 12
2:00 PM
Fri, Jul 12
3:00 PM
Fri, Jul 12
4:00 PM
Fri, Jul 12
5:00 PM
Fri, Jul 12
6:00 PM
Fri, Jul 12
7:00 PM
Fri, Jul 12
8:00 PM
Fri, Jul 12
9:00 PM
Fri, Jul 12
10:00 PM
Fri, Jul 12
11:00 PM
Sat, Jul 13
12:00 AM
Sat, Jul 13
1:00 AM
Sat, Jul 13
2:00 AM
Sat, Jul 13
3:00 AM
Sat, Jul 13
4:00 AM
Sat, Jul 13
5:00 AM
Sat, Jul 13
6:00 AM
Sat, Jul 13
7:00 AM
Sat, Jul 13
8:00 AM
Sat, Jul 13
9:00 AM
Sat, Jul 13
10:00 AM
Sat, Jul 13
11:00 AM
Sat, Jul 13
12:00 PM
Sat, Jul 13
1:00 PM
Sat, Jul 13
2:00 PM
Sat, Jul 13
3:00 PM
Sat, Jul 13
4:00 PM
Sat, Jul 13
5:00 PM
Sat, Jul 13
6:00 PM
Sat, Jul 13
7:00 PM
Sat, Jul 13
8:00 PM
Sat, Jul 13
9:00 PM
Sat, Jul 13
10:00 PM
Sat, Jul 13
11:00 PM
Sun, Jul 14
12:00 AM
Sun, Jul 14
1:00 AM
Sun, Jul 14
2:00 AM
Sun, Jul 14
3:00 AM
Sun, Jul 14
4:00 AM
Sun, Jul 14
5:00 AM
Sun, Jul 14
6:00 AM
Sun, Jul 14
7:00 AM
Sun, Jul 14
8:00 AM
Sun, Jul 14
9:00 AM
Sun, Jul 14
10:00 AM
Sun, Jul 14
11:00 AM
Sun, Jul 14
12:00 PM
Condition
Clouds

Clouds

Clouds

Clouds

Clouds

Clouds

Clouds

Clouds

Clouds

Clouds

Clouds

Clouds

Clouds

Clouds

Clouds

Clouds

Clouds

Clouds

Clouds

Clouds

Clouds

Clouds

Clouds

Clouds

Clouds

Clouds

Clouds

Clouds

Clouds

Clouds

Clouds

Clouds

Clouds

Clouds

Clouds

Clouds

Clouds

Clouds

Clouds

Clouds

Clouds

Clouds

Clouds

Clouds

Clouds

Clouds

Clouds

Clouds
Temperature 60°F60°F60°F59°F59°F58°F57°F58°F58°F58°F57°F57°F57°F57°F57°F57°F57°F57°F57°F57°F57°F57°F57°F57°F57°F57°F57°F58°F58°F58°F58°F58°F58°F58°F58°F58°F58°F58°F58°F58°F58°F58°F58°F59°F58°F58°F58°F58°F
Feels Like 59°F60°F59°F59°F58°F58°F57°F57°F57°F57°F57°F57°F57°F57°F57°F57°F57°F57°F57°F57°F57°F57°F56°F56°F57°F57°F57°F58°F58°F58°F58°F58°F58°F58°F58°F57°F57°F57°F58°F58°F58°F58°F58°F58°F58°F58°F58°F58°F
Cloudiness 69%68%67%67%66%52%45%43%58%66%72%100%70%62%58%55%52%41%42%42%41%38%41%57%63%66%67%69%70%84%85%85%82%82%83%92%94%95%96%96%97%99%99%99%99%99%100%100%
Visibility 6 mi6 mi6 mi6 mi6 mi6 mi6 mi6 mi6 mi6 mi6 mi6 mi6 mi6 mi6 mi6 mi6 mi6 mi6 mi6 mi6 mi6 mi5 mi5 mi6 mi6 mi6 mi6 mi6 mi6 mi6 mi6 mi6 mi6 mi6 mi6 mi6 mi6 mi6 mi6 mi6 mi6 mi6 mi6 mi6 mi6 mi6 mi6 mi
Precipitation 0%0%0%0%0%0%0%0%0%0%0%0%0%0%0%0%0%0%0%0%0%0%0%0%0%0%0%0%0%0%0%0%0%0%0%0%0%0%0%0%0%0%0%0%0%0%0%0%
Humidity 88%86%87%89%89%90%89%89%89%90%91%91%91%91%91%91%91%91%90%90%89%91%94%94%94%93%93%93%94%92%92%91%91%89%89%90%88%88%88%86%86%85%87%86%88%91%91%91%
Dew Point 56°F56°F56°F56°F55°F55°F54°F54°F54°F54°F55°F55°F54°F54°F54°F54°F54°F54°F54°F54°F54°F55°F55°F55°F55°F55°F55°F56°F56°F56°F56°F56°F56°F55°F55°F55°F54°F54°F54°F54°F54°F54°F54°F54°F55°F55°F55°F55°F
Pressure 30.09"30.09"30.09"30.09"30.06"30.06"30.06"30.06"30.03"30.06"30.06"30.06"30.06"30.03"30.03"30.03"30.03"30.06"30.03"30.06"30.06"30.06"30.06"30.06"30.06"30.06"30.06"30.06"30.06"30.06"30.06"30.06"30.03"30.06"30.06"30.06"30.06"30.06"30.06"30.06"30.06"30.06"30.06"30.09"30.09"30.09"30.09"30.12"
Wind Speed 8.3 mph9.4 mph10.7 mph11.1 mph10.4 mph9.7 mph9 mph8.9 mph8.8 mph8.4 mph7.9 mph7 mph6 mph5.1 mph4.7 mph3.4 mph2.7 mph1.9 mph1.2 mph2.1 mph3 mph5.1 mph6.8 mph7.6 mph7.7 mph7.9 mph8.8 mph9 mph8.5 mph8.6 mph8.6 mph7.3 mph7.2 mph7 mph6.6 mph6.2 mph6 mph5.6 mph5.5 mph5.1 mph4.7 mph4.4 mph3.8 mph4.9 mph5.3 mph5.6 mph6.3 mph7 mph
Wind
Direction
308°
NW
309°
NW
313°
NW
321°
NW
325°
NW
323°
NW
323°
NW
323°
NW
326°
NW
331°
NNW
329°
NNW
332°
NNW
326°
NW
322°
NW
320°
NW
323°
NW
321°
NW
307°
NW
298°
WNW
290°
WNW
275°
W
271°
W
276°
W
283°
WNW
292°
WNW
296°
WNW
301°
WNW
306°
NW
303°
WNW
304°
NW
307°
NW
307°
NW
303°
WNW
308°
NW
302°
WNW
293°
WNW
301°
WNW
300°
WNW
300°
WNW
297°
WNW
289°
WNW
282°
WNW
266°
W
264°
W
262°
W
263°
W
269°
W
275°
W

Daily Forecast

Date High Low Precip. Humidity
Today
Jul 12

Clouds
60 °F
57 °F
0%
88%
Saturday
Jul 13

Clouds
58 °F
57 °F
0%
94%
Sunday
Jul 14

Clouds
60 °F
58 °F
0%
90%
Monday
Jul 15

Clouds
58 °F
57 °F
0%
91%
Tuesday
Jul 16

Clouds
59 °F
56 °F
0%
97%
Wednesday
Jul 17

Clouds
61 °F
57 °F
0%
93%
Thursday
Jul 18

Rain
61 °F
59 °F
20%
97%
Friday
Jul 19

Rain
59 °F
57 °F
20%
88%
Saturday
Jul 20

Clouds
57 °F
56 °F
0%
86%
Sunday
Jul 21

Rain
58 °F
57 °F
100%
77%
Monday
Jul 22

Rain
58 °F
57 °F
72%
83%
Tuesday
Jul 23

Clear
58 °F
55 °F
0%
87%
Wednesday
Jul 24

Rain
58 °F
57 °F
20%
92%
Thursday
Jul 25

Rain
59 °F
57 °F
20%
81%
Friday
Jul 26

Clear
59 °F
55 °F
0%
87%
Saturday
Jul 27

Clouds
59 °F
56 °F
0%
85%

Temperature 8-14 Day Outlook



Precipitation 8-14 Day Outlook






About Us
Contact Us
Site Map
Search Site
Advertise With Us
   
LongBeachWA.USCoast.info
THE LONG BEACH WEBSITE

Copyright 2024, Coastal Town
Privacy    |    Legal